GW4266 Weather Reports


Display with metric or nautical units.
time (UTC)temp
F
wind
direction
speed
MPH
gust
MPH
rain 1hr
in
rain 24hr
in
rain mn
in
humidity
%
barometer
mb
20260506091450 75 216 0.0 1.0 0.00 0.00 0.00 92 1012.0
20260506090947 75 164 0.0 2.0 0.00 0.00 0.00 93 1012.4
20260506090445 75 116 0.0 1.0 0.00 0.00 0.00 93 1012.2
20260506085940 75 113 0.0 3.0 0.00 0.00 0.00 93 1012.0
20260506085438 75 159 0.0 4.0 0.00 0.00 0.00 92 1012.0
20260506084934 75 193 0.0 3.0 0.00 0.00 0.00 92 1012.0
20260506084431 75 180 0.0 2.0 0.00 0.00 0.00 92 1012.1
20260506083927 75 241 0.0 2.0 0.00 0.00 0.00 92 1011.9
20260506083424 75 193 0.0 1.0 0.00 0.00 0.00 92 1011.8
20260506082922 75 222 0.0 2.0 0.00 0.00 0.00 92 1012.1
20260506082419 75 247 0.0 5.0 0.00 0.00 0.00 92 1012.1
20260506081914 75 164 0.0 2.0 0.00 0.00 0.00 92 1012.1
20260506081413 75 180 0.0 3.0 0.00 0.00 0.00 92 1012.2
20260506080910 75 193 0.0 2.0 0.00 0.00 0.00 92 1011.9
20260506080406 75 126 2.0 3.0 0.00 0.00 0.00 92 1012.0
20260506073350 75 142 2.0 5.0 0.00 0.00 0.00 91 1012.2
20260506072847 75 90 0.0 5.0 0.00 0.00 0.00 91 1012.3
20260506072345 75 164 2.0 3.0 0.00 0.00 0.00 91 1012.2
20260506071843 75 122 2.0 4.0 0.00 0.00 0.00 91 1012.4
20260506071341 76 200 2.0 5.0 0.00 0.00 0.00 91 1012.4
20260506070837 76 190 2.0 7.0 0.00 0.00 0.00 91 1012.4
20260506070334 76 162 0.0 6.0 0.00 0.00 0.00 91 1012.3
20260506062311 75 195 1.0 3.0 0.00 0.00 0.00 92 1012.5
20260506061807 75 171 0.0 4.0 0.00 0.00 0.00 92 1012.3
20260506061304 75 150 0.0 3.0 0.00 0.00 0.00 92 1012.4
20260506060802 75 116 4.0 4.0 0.00 0.00 0.00 92 1012.4
20260506060300 75 124 2.0 3.0 0.00 0.00 0.00 92 1012.5
20260506051231 76 135 3.0 7.0 0.00 0.00 0.00 91 1012.4
20260506050730 76 180 2.0 7.0 0.00 0.00 0.00 91 1012.5
20260506050227 75 204 2.0 7.0 0.00 0.00 0.00 91 1012.5
20260506044717 76 95 0.0 5.0 0.00 0.00 0.00 92 1012.3
20260506044215 76 180 2.0 5.0 0.00 0.00 0.00 92 1012.3
20260506043712 76 187 0.0 4.0 0.00 0.00 0.00 92 1012.3
20260506043210 76 140 4.0 4.0 0.00 0.00 0.00 92 1012.4
20260506042708 76 167 0.0 4.0 0.00 0.00 0.00 92 1012.5
20260506042206 76 160 3.0 3.0 0.00 0.00 0.00 91 1012.5
20260506041704 76 125 0.0 5.0 0.00 0.00 0.00 91 1012.4
20260506041201 76 122 2.0 7.0 0.00 0.00 0.00 91 1012.3
20260506040658 76 147 2.0 4.0 0.00 0.00 0.00 91 1012.1
20260506040155 76 112 2.0 6.0 0.00 0.00 0.00 91 1012.2
20260506035652 76 216 1.0 7.0 0.00 0.00 0.00 91 1012.0
20260506035149 76 121 0.0 5.0 0.00 0.00 0.00 91 1012.2
20260506034646 76 153 0.0 4.0 0.00 0.00 0.00 91 1012.2
20260506034143 76 180 0.0 4.0 0.00 0.00 0.00 91 1011.9
20260506033640 76 150 0.0 5.0 0.00 0.00 0.00 90 1011.9
20260506033137 76 97 0.0 5.0 0.00 0.00 0.00 90 1011.9
20260506032634 77 113 0.0 5.0 0.00 0.00 0.00 90 1011.8
20260506032131 77 135 3.0 3.0 0.00 0.00 0.00 90 1012.0
20260506031628 77 123 2.0 3.0 0.00 0.00 0.00 89 1011.9
20260506031125 77 105 2.0 6.0 0.00 0.00 0.00 89 1011.9
20260506030623 77 138 2.0 3.0 0.00 0.00 0.00 88 1011.7
20260506030120 77 156 2.0 4.0 0.00 0.00 0.00 88 1011.6
20260506025617 77 104 2.0 3.0 0.00 0.00 0.00 88 1011.5
20260506025113 77 172 0.0 4.0 0.00 0.00 0.00 88 1011.5
20260506024611 77 135 0.0 0.0 0.00 0.00 0.00 88 1011.5
20260506024107 77 84 0.0 3.0 0.00 0.00 0.00 88 1011.3
20260506023603 77 125 0.0 1.0 0.00 0.00 0.00 87 1011.3
20260506023100 77 120 2.0 2.0 0.00 0.00 0.00 87 1011.3
20260506022558 77 109 0.0 2.0 0.00 0.00 0.00 87 1011.1
20260506022055 77 145 0.0 2.0 0.00 0.00 0.00 86 1011.0
20260506021553 78 156 0.0 0.0 0.00 0.00 0.00 86 1010.8
20260506021050 78 153 0.0 2.0 0.00 0.00 0.00 86 1010.8
20260506020547 78 114 0.0 4.0 0.00 0.00 0.00 85 1010.6
20260506020044 78 144 1.0 3.0 0.00 0.00 0.00 85 1010.5
20260506015542 78 113 0.0 3.0 0.00 0.00 0.00 85 1010.3
20260506015039 78 113 2.0 3.0 0.00 0.00 0.00 85 1010.2
20260506014536 78 156 2.0 4.0 0.00 0.00 0.00 85 1010.0
20260506014032 78 113 0.0 3.0 0.00 0.00 0.00 84 1010.2
20260506013531 78 147 0.0 2.0 0.00 0.00 0.00 84 1010.4
20260506013026 78 124 0.0 3.0 0.00 0.00 0.00 84 1010.2
20260506012523 79 112 0.0 2.0 0.00 0.00 0.00 83 1010.2
20260506012020 79 144 0.0 2.0 0.00 0.00 0.00 83 1010.0
20260506011517 79 138 0.0 2.0 0.00 0.00 0.00 82 1010.1
20260506011013 80 138 2.0 2.0 0.00 0.00 0.00 81 1010.2
20260506010513 80 119 0.0 1.0 0.00 0.00 0.00 80 1010.1
20260506010009 80 140 0.0 0.0 0.00 0.00 0.00 80 1010.2
20260506005506 81 125 0.0 0.0 0.00 0.00 0.00 79 1010.1
20260506005002 81 180 0.0 2.0 0.00 0.00 0.00 79 1010.0
20260506004500 81 143 0.0 3.0 0.00 0.00 0.00 79 1010.3
20260506003955 81 125 0.0 2.0 0.00 0.00 0.00 78 1010.0
20260506003452 82 164 0.0 2.0 0.00 0.00 0.00 78 1010.2
20260506002948 82 119 0.0 2.0 0.00 0.00 0.00 78 1010.0
20260506002445 82 126 0.0 2.0 0.00 0.00 0.00 77 1010.2
20260506001940 82 125 0.0 1.0 0.00 0.00 0.00 76 1010.0
20260506001437 82 116 0.0 2.0 0.00 0.00 0.00 77 1010.2
20260506000934 83 127 0.0 0.0 0.00 0.00 0.00 76 1010.2
20260506000432 83 105 0.0 1.0 0.00 0.00 0.00 75 1010.2
20260505235929 83 139 0.0 2.0 0.00 0.00 0.00 75 1010.1
20260505235427 83 104 0.0 3.0 0.00 0.00 0.00 74 1009.9
20260505234923 83 189 0.0 4.0 0.00 0.00 0.00 74 1009.9
20260505234421 84 142 0.0 2.0 0.00 0.00 0.00 74 1010.1
20260505233917 83 196 0.0 3.0 0.00 0.00 0.00 73 1009.8
20260505233415 83 156 0.0 3.0 0.00 0.00 0.00 72 1009.7
20260505232913 84 130 0.0 2.0 0.00 0.00 0.00 72 1009.7
20260505232410 84 165 0.0 3.0 0.00 0.00 0.00 72 1009.8
20260505231907 84 163 0.0 3.0 0.00 0.00 0.00 72 1010.0
20260505231404 84 96 0.0 3.0 0.00 0.00 0.00 72 1009.8
20260505230902 84 217 0.0 3.0 0.00 0.00 0.00 71 1009.8
20260505230400 85 189 0.0 3.0 0.00 0.00 0.00 71 1009.8
20260505225856 84 207 4.0 4.0 0.00 0.00 0.00 72 1010.0
20260505225353 85 147 0.0 3.0 0.00 0.00 0.00 71 1009.7
20260505224848 85 131 0.0 6.0 0.00 0.00 0.00 70 1009.7
20260505224346 86 150 0.0 3.0 0.00 0.00 0.00 70 1009.8
20260505223843 85 153 0.0 5.0 0.00 0.00 0.00 71 1009.6
20260505223340 85 114 0.0 5.0 0.00 0.00 0.00 69 1009.7
20260505222836 86 262 0.0 4.0 0.00 0.00 0.00 69 1010.0
20260505222332 85 180 0.0 5.0 0.00 0.00 0.00 69 1009.6
20260505221829 86 180 0.0 6.0 0.00 0.00 0.00 70 1009.6
20260505221326 86 156 1.0 3.0 0.00 0.00 0.00 68 1009.7
20260505220823 86 122 0.0 3.0 0.00 0.00 0.00 68 1009.8
20260505220320 86 193 1.0 4.0 0.00 0.00 0.00 68 1009.6
20260505215818 87 245 4.0 4.0 0.00 0.00 0.00 67 1009.5
20260505215316 87 116 1.0 2.0 0.00 0.00 0.00 66 1009.6
20260505214814 87 251 3.0 4.0 0.00 0.00 0.00 65 1009.7
20260505214311 87 241 3.0 3.0 0.00 0.00 0.00 67 1009.8
20260505213808 86 105 0.0 5.0 0.00 0.00 0.00 68 1009.9
20260505213306 88 125 0.0 5.0 0.00 0.00 0.00 65 1010.0
20260505212801 88 195 2.0 7.0 0.00 0.00 0.00 65 1010.0
20260505212259 89 241 0.0 4.0 0.00 0.00 0.00 64 1010.2
20260505211755 88 217 3.0 3.0 0.00 0.00 0.00 66 1010.5
20260505211253 87 229 0.0 4.0 0.00 0.00 0.00 67 1010.2
20260505210749 87 120 4.0 7.0 0.00 0.00 0.00 66 1010.0
20260505210246 88 156 0.0 5.0 0.00 0.00 0.00 66 1010.1
20260505205743 88 180 2.0 7.0 0.00 0.00 0.00 65 1010.4
20260505205241 88 156 2.0 5.0 0.00 0.00 0.00 66 1010.1
20260505204737 87 167 1.0 6.0 0.00 0.00 0.00 65 1010.3
20260505204235 89 123 3.0 4.0 0.00 0.00 0.00 65 1010.3
20260505203732 88 167 2.0 4.0 0.00 0.00 0.00 66 1010.4
20260505203229 88 180 0.0 3.0 0.00 0.00 0.00 67 1010.6
20260505202725 87 244 3.0 6.0 0.00 0.00 0.00 68 1010.6
20260505202221 87 153 0.0 5.0 0.00 0.00 0.00 67 1011.0
20260505201718 87 165 1.0 5.0 0.00 0.00 0.00 69 1011.0
20260505201216 87 192 0.0 5.0 0.00 0.00 0.00 68 1010.8
20260505200714 87 180 0.0 4.0 0.00 0.00 0.00 69 1011.3
20260505200210 86 229 0.0 5.0 0.00 0.00 0.00 68 1011.1
20260505195706 86 187 1.0 9.0 0.00 0.00 0.00 68 1011.4
20260505195204 85 234 2.0 6.0 0.00 0.00 0.00 68 1011.5
20260505194701 86 156 2.0 3.0 0.00 0.00 0.00 68 1011.3
20260505194157 87 164 2.0 3.0 0.00 0.00 0.00 68 1011.5
20260505193653 85 199 0.0 2.0 0.00 0.00 0.00 70 1011.5
20260505193150 86 168 3.0 4.0 0.00 0.00 0.00 68 1011.8
20260505192649 86 175 2.0 6.0 0.00 0.00 0.00 67 1011.7
20260505192146 86 175 2.0 3.0 0.00 0.00 0.00 68 1011.5
20260505191644 86 164 0.0 6.0 0.00 0.00 0.00 70 1011.6
20260505191142 85 180 0.0 5.0 0.00 0.00 0.00 71 1011.7
20260505190638 84 252 0.0 6.0 0.00 0.00 0.00 70 1011.7
20260505190132 85 197 4.0 4.0 0.00 0.00 0.00 69 1011.8
20260505185630 85 229 2.0 4.0 0.00 0.00 0.00 69 1011.8
20260505185126 85 152 0.0 3.0 0.00 0.00 0.00 69 1011.7
20260505184623 84 150 1.0 3.0 0.00 0.00 0.00 71 1011.7
20260505184120 83 258 1.0 3.0 0.00 0.00 0.00 73 1012.2
20260505183616 83 222 2.0 4.0 0.00 0.00 0.00 73 1012.2
20260505183114 83 222 2.0 3.0 0.00 0.00 0.00 73 1012.2
20260505182610 82 255 0.0 3.0 0.00 0.00 0.00 74 1012.4
20260505182107 82 190 2.0 4.0 0.00 0.00 0.00 75 1012.3
20260505181604 81 176 0.0 3.0 0.00 0.00 0.00 75 1012.5
20260505181101 80 233 2.0 3.0 0.00 0.00 0.00 76 1012.6
20260505180556 80 164 0.0 4.0 0.00 0.00 0.00 76 1012.5
20260505180055 80 187 3.0 5.0 0.00 0.00 0.00 77 1012.6
20260505175550 80 95 2.0 5.0 0.00 0.00 0.00 77 1012.7
20260505175047 80 144 0.0 3.0 0.00 0.00 0.00 77 1013.0
20260505174544 79 205 0.0 4.0 0.00 0.00 0.00 78 1012.7
20260505174040 79 150 0.0 6.0 0.00 0.00 0.00 79 1012.7
20260505173537 79 180 2.0 4.0 0.00 0.00 0.00 79 1012.9
20260505173033 78 210 0.0 4.0 0.00 0.00 0.00 79 1012.9
20260505172531 79 245 3.0 5.0 0.00 0.00 0.00 79 1012.8
20260505172027 78 167 1.0 3.0 0.00 0.00 0.00 79 1012.9
20260505171522 78 146 0.0 3.0 0.00 0.00 0.00 81 1013.1
20260505171019 77 222 2.0 3.0 0.00 0.00 0.00 81 1013.1
20260505170516 77 173 1.0 3.0 0.00 0.00 0.00 82 1013.1
20260505170012 77 168 0.0 5.0 0.00 0.00 0.00 82 1013.2
20260505165507 77 158 2.0 3.0 0.00 0.00 0.00 83 1013.2
20260505165003 77 225 3.0 3.0 0.00 0.00 0.00 82 1013.1
20260505164459 76 193 1.0 4.0 0.00 0.00 0.00 83 1013.1
20260505163958 76 180 1.0 2.0 0.00 0.00 0.00 84 1013.0
20260505163456 76 222 0.0 3.0 0.00 0.00 0.00 84 1012.9
20260505162955 76 165 0.0 3.0 0.00 0.00 0.00 84 1013.1
20260505162451 76 171 0.0 2.0 0.00 0.00 0.00 84 1012.9
20260505161948 75 234 0.0 2.0 0.00 0.00 0.00 85 1012.9
20260505161444 75 174 1.0 6.0 0.00 0.00 0.00 86 1013.2
20260505160942 74 163 2.0 2.0 0.00 0.00 0.00 87 1013.2
20260505160440 74 324 0.0 2.0 0.00 0.00 0.00 88 1013.2
20260505152916 72 180 0.0 3.0 0.00 0.00 0.00 90 1013.3
20260505152413 72 98 0.0 2.0 0.00 0.00 0.00 90 1013.3
20260505151913 72 191 0.0 2.0 0.00 0.00 0.00 90 1013.3
20260505151404 72 180 0.0 2.0 0.00 0.00 0.00 90 1012.9
20260505150901 72 270 0.0 3.0 0.00 0.00 0.00 90 1013.2
20260505150359 72 109 0.0 3.0 0.00 0.00 0.00 91 1013.3
20260505140328 71 225 0.0 3.0 0.00 0.00 0.00 92 1012.6
20260505130252 71 156 1.0 3.0 0.00 0.00 0.00 92 1012.1
20260505124742 71 189 0.0 2.0 0.00 0.00 0.00 92 1011.9
20260505124239 71 110 1.0 2.0 0.00 0.00 0.00 91 1011.9
20260505123734 71 126 0.0 3.0 0.00 0.00 0.00 91 1012.0
20260505123231 70 180 0.0 3.0 0.00 0.00 0.00 91 1011.8
20260505122728 70 180 0.0 3.0 0.00 0.00 0.00 92 1011.9
20260505122225 70 244 0.0 3.0 0.00 0.00 0.00 92 1011.8
20260505121717 70 171 0.0 0.0 0.00 0.00 0.00 92 1011.7
20260505121213 70 147 0.0 2.0 0.00 0.00 0.00 92 1011.5
20260505120710 70 90 0.0 1.0 0.00 0.00 0.00 92 1011.4
20260505120205 70 173 1.0 2.0 0.00 0.00 0.00 92 1011.5
20260505115658 70 144 0.0 4.0 0.00 0.00 0.00 92 1011.3
20260505115156 70 150 0.0 2.0 0.00 0.00 0.00 92 1011.1
20260505114653 70 164 0.0 1.0 0.00 0.00 0.00 92 1011.5
20260505114149 70 189 0.0 2.0 0.00 0.00 0.00 92 1011.5
20260505113646 70 164 0.0 2.0 0.00 0.00 0.00 92 1011.6
20260505113143 70 187 0.0 2.0 0.00 0.00 0.00 92 1011.3
20260505112639 70 180 1.0 2.0 0.00 0.00 0.00 92 1011.1
20260505112138 70 94 2.0 2.0 0.00 0.00 0.00 92 1011.4
20260505111636 70 241 1.0 2.0 0.00 0.00 0.00 92 1011.4
20260505111133 70 195 1.0 3.0 0.00 0.00 0.00 92 1011.4
20260505110629 70 213 0.0 2.0 0.00 0.00 0.00 92 1011.5
20260505110126 70 242 0.0 3.0 0.00 0.00 0.00 92 1011.3
20260505102102 71 109 0.0 3.0 0.00 0.00 0.00 91 1011.7
20260505101601 71 116 0.0 1.0 0.00 0.00 0.00 91 1011.5
20260505101056 71 159 0.0 2.0 0.00 0.00 0.00 91 1011.9
20260505100553 71 176 0.0 3.0 0.00 0.00 0.00 91 1011.6
20260505100050 70 167 0.0 3.0 0.00 0.00 0.00 91 1011.7
20260505095546 71 90 0.0 3.0 0.00 0.00 0.00 90 1011.6
20260505095043 70 119 0.0 1.0 0.00 0.00 0.00 90 1011.7
20260505094539 71 151 0.0 2.0 0.00 0.00 0.00 90 1011.5
20260505094035 70 192 0.0 2.0 0.00 0.00 0.00 90 1011.4
20260505093532 71 90 0.0 2.0 0.00 0.00 0.00 90 1011.6
20260505093030 71 180 0.0 3.0 0.00 0.00 0.00 90 1012.0
20260505092527 71 165 0.0 3.0 0.00 0.00 0.00 90 1011.9
20260505092025 70 221 2.0 3.0 0.00 0.00 0.00 90 1011.6